Vineland (AU8), Ontario

12:13 AM EDT on August 19, 2017 (GMT -0400)
Vineland (AU8)

Weather History for CXVN - November, 2013

Change the Weather History Date:

Thursday, November 14, 2013

  Actual Average (CYSN) Record (CYSN)
Temperature  
Mean Temperature 43 °F -  
Max Temperature 48 °F 45 °F 64 °F (2008)
Min Temperature 38 °F 34 °F 23 °F (1996)
Degree Days  
Heating Degree Days 22    
Moisture  
Dew Point 26 °F    
Average Humidity 48    
Maximum Humidity 60    
Minimum Humidity 25    
Precipitation  
Precipitation 0.00 in - - ()
Sea Level Pressure  
Sea Level Pressure 30.02 in    
Wind  
Wind Speed 17 mph ()    
Max Wind Speed 25 mph    
Max Gust Speed 40 mph    
Averages and records for this station are not official NWS values.
T = Trace of Precipitation, MM = Missing Value Source: Averaged Metar Reports

Daily Weather History Graph

Daily Weather History Graph

Search for Another Location

Airport or City:

Trip Planner

Search our weather history database for the weather conditions in past years. The results will help you decide how hot, cold, wet, or windy it might be!

Date:

Astronomy

Nov. 14, 2013 Rise Set
Actual Time 7:09 AM EST 4:54 PM EST
Civil Twilight 6:38 AM EST 5:24 PM EST
Nautical Twilight 6:04 AM EST 5:59 PM EST
Astronomical Twilight 5:30 AM EST 6:32 PM EST
Moon 3:18 PM EST (11/14) 3:58 AM EST (11/14)
Length of Visible Light 10h 45m
Length of Day
9h 44m
Waxing Gibbous, 91% of the Moon is Illuminated
Nov 14
Waxing Gibbous
Nov 17
Full
Nov 25
Last Quarter
Dec 2
New
Dec 9
First Quarter

Hourly Weather History & Observations

Time (EST) Temp. Windchill Dew Point Humidity Pressure Visibility Wind Dir Wind Speed Gust Speed Precip Events Conditions
12:00 AM 40.8 °F 30.4 °F 27.5 °F 59% 30.03 in - WSW 25.3 mph 36.8 mph N/A   Unknown
1:00 AM 41 °F - 28 °F 47% 30.04 in - WSW 21.9 mph - -  
1:00 AM 40.8 °F 31.1 °F 27.7 °F 60% 30.04 in - WSW 21.9 mph 34.5 mph N/A   Unknown
2:00 AM 40.8 °F 32.0 °F 25.9 °F 55% 30.05 in - WSW 18.4 mph 31.1 mph N/A   Unknown
3:00 AM 40.1 °F 32.0 °F 25.9 °F 57% 30.06 in - WSW 15.0 mph 21.9 mph N/A   Unknown
4:00 AM 39.7 °F 30.6 °F 24.6 °F 55% 30.06 in - WSW 18.4 mph 25.3 mph N/A   Unknown
5:00 AM 39.4 °F 30.1 °F 20.1 °F 46% 30.07 in - West 18.4 mph 25.3 mph N/A   Unknown
6:00 AM 39.0 °F 30.6 °F 20.1 °F 47% 30.08 in - WSW 15.0 mph 23.0 mph N/A   Unknown
7:00 AM 39 °F - 21 °F 36% 30.08 in - WSW 15.0 mph - -  
7:00 AM 38.7 °F 30.1 °F 21.4 °F 50% 30.08 in - WSW 15.0 mph 20.7 mph N/A   Unknown
8:00 AM 39.2 °F 30.8 °F 23.9 °F 54% 30.08 in - WSW 15.0 mph 23.0 mph N/A   Unknown
9:00 AM 42.6 °F 35.2 °F 27.1 °F 54% 30.08 in - WSW 15.0 mph 25.3 mph N/A   Unknown
10:00 AM 45.3 °F 37.8 °F 28.8 °F 52% 30.06 in - WSW 18.4 mph 27.6 mph N/A   Unknown
11:00 AM 46.9 °F - 29.7 °F 51% 30.04 in - WSW 23.0 mph 34.5 mph N/A   Unknown
12:00 PM 46.8 °F - 31.8 °F 56% 30.02 in - WSW 24.2 mph 40.3 mph N/A   Unknown
1:00 PM 47 °F - 31 °F 42% 30.01 in - WSW 19.6 mph - -  
1:00 PM 46.9 °F - 31.3 °F 55% 30.01 in - WSW 19.6 mph 32.2 mph N/A   Unknown
2:00 PM 47.3 °F - 30.2 °F 52% 29.99 in - SW 20.7 mph 31.1 mph N/A   Unknown
3:00 PM 48.2 °F - 27.5 °F 45% 29.99 in - WSW 17.3 mph 27.6 mph N/A   Unknown
4:00 PM 47.7 °F - 26.8 °F 44% 29.97 in - SW 16.1 mph 28.8 mph N/A   Unknown
5:00 PM 47.5 °F - 27.3 °F 46% 29.96 in - WSW 16.1 mph 27.6 mph N/A   Unknown
6:00 PM 47.3 °F - 26.4 °F 44% 29.97 in - WSW 10.4 mph 17.3 mph N/A   Unknown
7:00 PM 49 °F - 24 °F 25% 29.95 in - SW 19.6 mph - -  
7:00 PM 48.6 °F - 24.3 °F 39% 29.95 in - SW 19.6 mph 29.9 mph N/A   Unknown
8:00 PM 48.2 °F - 25.2 °F 41% 29.96 in - SW 19.6 mph 32.2 mph N/A   Unknown
9:00 PM 48.4 °F - 23.9 °F 38% 29.97 in - SW 19.6 mph 32.2 mph N/A   Unknown
10:00 PM 48.2 °F - 24.1 °F 39% 29.99 in - SW 18.4 mph 29.9 mph N/A   Unknown
11:00 PM 47.3 °F - 24.6 °F 41% 29.99 in - SW 18.4 mph 26.5 mph N/A   Unknown